China Weather Beijing today hourly
Home / China / Beijing / Beijing Hour By Hour Weather - 24hr View

48 Hour View

Time Temp. Wind Dir. Humidity Wind Spd. Precip.
2020-07-20 20:00pm 29°C S 58% 11km/h 0%
2020-07-20 21:00pm 29°C S 58% 3km/h 0%
2020-07-20 22:00pm 28°C S 59% 2km/h 0%
2020-07-20 23:00pm 27°C S 60% 7km/h 0%
2020-07-21 00:00pm 27°C S 61% 3km/h 0%
2020-07-21 01:00pm 26°C S 62% 6km/h 0%
2020-07-21 02:00pm 25°C S 63% 6km/h 0%
2020-07-21 03:00pm 25°C S 67% 7km/h 0%
2020-07-21 04:00pm 24°C S 71% 9km/h 0%
2020-07-21 05:00pm 24°C S 74% 4km/h 0%
2020-07-21 06:00pm 25°C S 74% 9km/h 0%
2020-07-21 07:00pm 26°C S 74% 5km/h 0%
2020-07-21 08:00pm 27°C S 74% 4km/h 0%
2020-07-21 09:00pm 28°C S 71% 8km/h 0%
2020-07-21 10:00pm 29°C S 68% 6km/h 0%
2020-07-21 11:00pm 30°C S 65% 7km/h 0%
2020-07-21 12:00pm 31°C S 62% 6km/h 0%
2020-07-21 13:00pm 32°C S 58% 21km/h 0%
2020-07-21 14:00pm 33°C S 54% 12km/h 0%
2020-07-21 15:00pm 33°C S 54% 12km/h 0%
2020-07-21 16:00pm 33°C S 54% 17km/h 0%
2020-07-21 17:00pm 32°C S 54% 22km/h 0%
2020-07-21 18:00pm 31°C S 52% 13km/h 0%
2020-07-21 19:00pm 30°C S 52% 4km/h 0%
2020-07-21 19:00pm 29°C S 63% 8km/h 0%
2020-07-21 20:00pm 28°C S 54% 5km/h 0%
2020-07-21 21:00pm 27°C S 56% 1km/h 0%
2020-07-21 22:00pm 27°C S 58% 8km/h 0%
2020-07-21 23:00pm 26°C S 60% 3km/h 0%
2020-07-22 00:00pm 25°C S 64% 8km/h 0%
2020-07-22 01:00pm 24°C S 68% 11km/h 0%
2020-07-22 02:00pm 23°C S 72% 3km/h 0%
2020-07-22 03:00pm 23°C S 75% 6km/h 0%
2020-07-22 04:00pm 22°C S 78% 10km/h 0%
2020-07-22 05:00pm 22°C S 81% 5km/h 0%
2020-07-22 06:00pm 23°C S 76% 8km/h 1%
2020-07-22 07:00pm 25°C S 71% 6km/h 7%
2020-07-22 08:00pm 26°C S 66% 10km/h 7%
2020-07-22 09:00pm 27°C S 60% 10km/h 7%
2020-07-22 10:00pm 29°C SE 54% 2km/h 7%
2020-07-22 11:00pm 30°C SE 48% 2km/h 7%
2020-07-22 12:00pm 30°C SE 44% 3km/h 5%
2020-07-22 13:00pm 31°C SE 40% 11km/h 0%
2020-07-22 14:00pm 31°C SE 36% 3km/h 0%
2020-07-22 15:00pm 31°C SE 34% 4km/h 0%
2020-07-22 16:00pm 31°C SE 33% 6km/h 0%
2020-07-22 17:00pm 31°C SE 32% 8km/h 0%
2020-07-22 18:00pm 31°C SE 37% 8km/h 0%

More Local Information

Hourly Weather Nearby

Bookmark and Share

Become A Member